TimeCST,TemperatureF,Dew PointF,Humidity,Sea Level PressureIn,VisibilityMPH,Wind Direction,Wind SpeedMPH,Gust SpeedMPH,PrecipitationIn,Events,Conditions,WindDirDegrees,DateUTC
12:52 AM,19.9,12.0,71,30.28,10.0,North,5.8,-,N/A,,Clear,350,2013-01-02 06:52:00
1:52 AM,19.0,12.0,74,30.29,10.0,NNW,3.5,-,N/A,,Clear,330,2013-01-02 07:52:00
2:52 AM,17.1,12.0,81,30.29,10.0,NNW,3.5,-,N/A,,Clear,340,2013-01-02 08:52:00
3:52 AM,16.0,10.9,81,30.28,9.0,NNW,4.6,-,N/A,,Clear,340,2013-01-02 09:52:00
4:52 AM,14.0,10.9,88,30.28,7.0,Calm,Calm,-,N/A,,Clear,0,2013-01-02 10:52:00
6:52 AM,12.9,10.0,88,30.31,7.0,NW,3.5,-,N/A,,Clear,320,2013-01-02 12:52:00
7:52 AM,15.1,10.9,84,30.31,6.0,NNW,3.5,-,N/A,,Clear,330,2013-01-02 13:52:00
8:52 AM,19.0,12.0,74,30.32,8.0,Calm,Calm,-,N/A,,Clear,0,2013-01-02 14:52:00
9:52 AM,19.0,12.0,74,30.33,9.0,Calm,Calm,-,N/A,,Clear,0,2013-01-02 15:52:00
10:52 AM,21.9,10.9,63,30.32,10.0,Calm,Calm,-,N/A,,Clear,0,2013-01-02 16:52:00
11:52 AM,24.1,10.9,57,30.30,10.0,Calm,Calm,-,N/A,,Clear,0,2013-01-02 17:52:00
12:52 PM,27.0,9.0,47,30.26,10.0,Calm,Calm,-,N/A,,Clear,0,2013-01-02 18:52:00
1:52 PM,28.0,10.0,47,30.24,10.0,Calm,Calm,-,N/A,,Clear,0,2013-01-02 19:52:00
2:52 PM,30.9,12.9,47,30.25,10.0,Calm,Calm,-,N/A,,Clear,0,2013-01-02 20:52:00
3:52 PM,28.0,12.0,51,30.27,10.0,NW,3.5,-,N/A,,Clear,320,2013-01-02 21:52:00
4:52 PM,27.0,10.0,49,30.26,10.0,Calm,Calm,-,N/A,,Clear,0,2013-01-02 22:52:00
5:52 PM,24.1,14.0,65,30.27,10.0,Calm,Calm,-,N/A,,Clear,0,2013-01-02 23:52:00
6:52 PM,23.0,12.9,65,30.27,10.0,SE,3.5,-,N/A,,Clear,130,2013-01-03 00:52:00
7:52 PM,24.1,12.9,62,30.28,10.0,Calm,Calm,-,N/A,,Clear,0,2013-01-03 01:52:00
8:52 PM,19.9,14.0,78,30.27,10.0,SE,3.5,-,N/A,,Clear,140,2013-01-03 02:52:00
9:52 PM,19.9,12.9,74,30.29,10.0,Calm,Calm,-,N/A,,Clear,0,2013-01-03 03:52:00
10:52 PM,18.0,12.9,81,30.29,9.0,Calm,Calm,-,N/A,,Clear,0,2013-01-03 04:52:00
11:52 PM,16.0,12.0,84,30.28,8.0,Calm,Calm,-,N/A,,Clear,0,2013-01-03 05:52:00